Weather History for International Falls, MN

Change the Weather History Date:

Monday, May 27, 2013

  Actual Average Record
Temperature  
Mean Temperature 55 °F 55 °F  
Max Temperature 73 °F 68 °F 94 °F (1969)
Min Temperature 37 °F 42 °F 25 °F (2008)
Degree Days  
Heating Degree Days 10 10  
Month to date heating degree days 461 381  
Since 1 July heating degree days 10537 10019  
Cooling Degree Days 0 0  
Month to date cooling degree days 0 0  
Year to date cooling degree days 0 1  
Growing Degree Days 5 (Base 50)    
Moisture  
Dew Point 39 °F    
Average Humidity 58    
Maximum Humidity 85    
Minimum Humidity 31    
Precipitation  
Precipitation 0.00 in 0.10 in 1.23 in (1941)
Month to date precipitation 4.68 2.43  
Year to date precipitation 11.36 6.10  
Snow  
Snow 0.00 in 0.00 in 0.30 in (1965)
Month to date snowfall T 0.2  
Since 1 July snowfall 98.6 71.0  
Snow Depth 0.00 in    
Sea Level Pressure  
Sea Level Pressure 29.99 in    
Wind  
Wind Speed 7 mph (SE)    
Max Wind Speed 20 mph    
Max Gust Speed 28 mph    
Visibility 10 miles    
Events      
T = Trace of Precipitation, MM = Missing Value Source: NWS Daily Summary

Daily Weather History Graph

Daily Weather History Graph

Search for Another Location

Airport:

Trip Planner

Search our weather history database for the weather conditions in past years. The results will help you decide how hot, cold, wet, or windy it might be!

Date:

Astronomy

May. 27, 2013 Rise Set
Actual Time 5:19 AM CDT 9:02 PM CDT
Civil Twilight 4:39 AM CDT 9:42 PM CDT
Nautical Twilight 3:45 AM CDT 10:37 PM CDT
Astronomical Twilight 2:27 AM CDT 11:56 PM CDT
Moon 11:35 PM CDT (5/27) 8:01 AM CDT (5/27)
Length of Visible Light 17h 03m
Length of Day
15h 43m
Waning Gibbous, 91% of the Moon is Illuminated
May 27
Waning Gibbous
May 31
Last Quarter
Jun 8
New
Jun 16
First Quarter
Jun 23
Full

Hourly Weather History & Observations

Time (CDT) Temp. Windchill Dew Point Humidity Pressure Visibility Wind Dir Wind Speed Gust Speed Precip Events Conditions
12:55 AM 52.0 °F - 37.0 °F 57% 30.09 in 10.0 mi SE 8.1 mph - N/A   Clear
1:55 AM 48.9 °F - 34.0 °F 56% 30.09 in 10.0 mi SSE 8.1 mph - N/A   Clear
2:55 AM 46.0 °F 44.8 °F 32.0 °F 58% 30.10 in 10.0 mi ESE 3.5 mph - N/A   Clear
3:55 AM 37.9 °F - 33.1 °F 83% 30.11 in 10.0 mi Calm Calm - N/A   Clear
4:55 AM 39.9 °F - 34.0 °F 79% 30.10 in 10.0 mi Calm Calm - N/A   Clear
5:55 AM 43.0 °F - 33.1 °F 68% 30.10 in 10.0 mi Calm Calm - N/A   Clear
6:55 AM 48.0 °F - 33.1 °F 56% 30.12 in 10.0 mi ESE 6.9 mph - N/A   Clear
7:55 AM 53.1 °F - 35.1 °F 50% 30.09 in 10.0 mi SE 6.9 mph - N/A   Clear
8:55 AM 57.9 °F - 37.0 °F 46% 30.07 in 10.0 mi Variable 3.5 mph - N/A   Clear
9:55 AM 62.1 °F - 39.0 °F 43% 30.05 in 10.0 mi ESE 9.2 mph - N/A   Clear
10:55 AM 66.0 °F - 37.9 °F 36% 30.01 in 10.0 mi ESE 12.7 mph 16.1 mph N/A   Clear
11:55 AM 66.9 °F - 35.1 °F 31% 29.99 in 10.0 mi SE 16.1 mph 24.2 mph N/A   Clear
12:55 PM 69.1 °F - 37.9 °F 32% 29.98 in 10.0 mi South 8.1 mph 18.4 mph N/A   Clear
1:55 PM 70.0 °F - 44.1 °F 39% 29.96 in 10.0 mi SE 10.4 mph 23.0 mph N/A   Clear
2:55 PM 72.0 °F - 45.0 °F 38% 29.93 in 10.0 mi SE 13.8 mph 21.9 mph N/A   Clear
3:55 PM 73.0 °F - 43.0 °F 34% 29.92 in 10.0 mi South 10.4 mph 19.6 mph N/A   Clear
4:55 PM 73.0 °F - 44.1 °F 35% 29.90 in 10.0 mi Variable 4.6 mph 20.7 mph N/A   Mostly Cloudy
5:55 PM 69.1 °F - 45.0 °F 42% 29.90 in 10.0 mi SE 13.8 mph 19.6 mph N/A   Mostly Cloudy
6:55 PM 68.0 °F - 45.0 °F 43% 29.90 in 10.0 mi SSE 9.2 mph - N/A   Overcast
7:55 PM 66.0 °F - 44.1 °F 45% 29.90 in 10.0 mi Variable 6.9 mph - N/A   Overcast
8:55 PM 64.0 °F - 43.0 °F 46% 29.88 in 10.0 mi Variable 3.5 mph - N/A   Overcast
9:55 PM 62.1 °F - 44.1 °F 52% 29.88 in 10.0 mi SSE 4.6 mph - N/A   Overcast
10:55 PM 62.1 °F - 42.1 °F 48% 29.88 in 10.0 mi SSE 4.6 mph - N/A   Overcast
11:55 PM 60.1 °F - 43.0 °F 53% 29.87 in 10.0 mi SE 5.8 mph - N/A   Overcast